Okeechobee, FL

1:18 PM EDT on April 28, 2017 (GMT -0400)
Okeechobee County

Weather History for KOBE - March, 2013

Change the Weather History Date:

Tuesday, March 5, 2013

  Actual Average Record
Temperature  
Mean Temperature 55 °F -  
Max Temperature 75 °F 77 °F 88 °F (1988)
Min Temperature 35 °F 56 °F 35 °F (2013)
Degree Days  
Heating Degree Days 10    
Growing Degree Days 5 (Base 50)    
Moisture  
Dew Point 47 °F    
Average Humidity 72    
Maximum Humidity 100    
Minimum Humidity 41    
Precipitation  
Precipitation 0.00 in - - ()
Sea Level Pressure  
Sea Level Pressure 30.14 in    
Wind  
Wind Speed 3 mph (South)    
Max Wind Speed 12 mph    
Max Gust Speed 17 mph    
Visibility 10 miles    
Events      
Averages and records for this station are not official NWS values.
T = Trace of Precipitation, MM = Missing Value Source: NWS Daily Summary

Daily Weather History Graph

Daily Weather History Graph

Search for Another Location

Airport or City:

Trip Planner

Search our weather history database for the weather conditions in past years. The results will help you decide how hot, cold, wet, or windy it might be!

Date:

Astronomy

Mar. 05, 2013 Rise Set
Actual Time 6:43 AM EST 6:26 PM EST
Civil Twilight 6:19 AM EST 6:50 PM EST
Nautical Twilight 5:52 AM EST 7:17 PM EST
Astronomical Twilight 5:25 AM EST 7:44 PM EST
Moon 1:31 AM EST (3/5) 12:27 PM EST (3/5)
Length of Visible Light 12h 30m
Length of Day
11h 43m
Last Quarter, 41% of the Moon is Illuminated
Mar 5
Last Quarter
Mar 11
New
Mar 19
First Quarter
Mar 27
Full
Apr 3
Last Quarter

Hourly Weather History & Observations

Time (EST) Temp. Windchill Dew Point Humidity Pressure Visibility Wind Dir Wind Speed Gust Speed Precip Events Conditions
12:15 AM 41.0 °F - 41.0 °F 100% 30.19 in 10.0 mi Calm Calm - N/A   Clear
12:35 AM 41.0 °F - 39.2 °F 93% 30.19 in 10.0 mi Calm Calm - N/A   Clear
12:55 AM 41.0 °F 39.0 °F 37.4 °F 87% 30.18 in 10.0 mi ENE 3.5 mph - N/A   Clear
1:15 AM 41.0 °F - 37.4 °F 87% 30.18 in 10.0 mi Calm Calm - N/A   Clear
1:35 AM 41.0 °F - 39.2 °F 93% 30.17 in 10.0 mi Calm Calm - N/A   Clear
1:55 AM 41.0 °F - 39.2 °F 93% 30.17 in 10.0 mi Calm Calm - N/A   Clear
2:15 AM 41.0 °F - 39.2 °F 93% 30.16 in 10.0 mi Calm Calm - N/A   Clear
2:35 AM 41.0 °F - 37.4 °F 87% 30.16 in 10.0 mi Calm Calm - N/A   Clear
2:55 AM 41.0 °F - 35.6 °F 81% 30.15 in 10.0 mi Calm Calm - N/A   Clear
3:15 AM 41.0 °F - 37.4 °F 87% 30.15 in 10.0 mi Calm Calm - N/A   Clear
3:35 AM 39.2 °F - 37.4 °F 93% 30.16 in 10.0 mi Calm Calm - N/A   Clear
3:55 AM 39.2 °F - 37.4 °F 93% 30.16 in 10.0 mi Calm Calm - N/A   Clear
4:15 AM 39.2 °F - 37.4 °F 93% 30.17 in 10.0 mi Calm Calm - N/A   Clear
4:35 AM 37.4 °F - 37.4 °F 100% 30.17 in 10.0 mi Calm Calm - N/A   Clear
4:55 AM 39.2 °F - 37.4 °F 93% 30.17 in 10.0 mi Calm Calm - N/A   Clear
5:15 AM 37.4 °F - 37.4 °F 100% 30.17 in 10.0 mi Calm Calm - N/A   Clear
5:35 AM 37.4 °F - 37.4 °F 100% 30.18 in 10.0 mi Calm Calm - N/A   Clear
5:55 AM 37.4 °F - 37.4 °F 100% 30.19 in 10.0 mi Calm Calm - N/A   Clear
6:15 AM 37.4 °F - 35.6 °F 93% 30.19 in 10.0 mi Calm Calm - N/A   Clear
6:55 AM 35.6 °F - 35.6 °F 100% 30.18 in 7.0 mi Calm Calm - N/A   Clear
7:15 AM 37.4 °F - 37.4 °F 100% 30.18 in 7.0 mi Calm Calm - N/A   Clear
7:35 AM 41.0 °F - 41.0 °F 100% 30.19 in 10.0 mi Calm Calm - N/A   Clear
8:15 AM 50.0 °F - 46.4 °F 87% 30.19 in 10.0 mi Calm Calm - N/A   Clear
8:35 AM 53.6 °F - 48.2 °F 82% 30.19 in 10.0 mi Calm Calm - N/A   Clear
8:55 AM 60.8 °F - 50.0 °F 68% 30.19 in 10.0 mi Calm Calm - N/A   Clear
9:15 AM 62.6 °F - 46.4 °F 55% 30.19 in 10.0 mi SSE 4.6 mph - N/A   Clear
9:35 AM 64.4 °F - 50.0 °F 59% 30.20 in 10.0 mi South 5.8 mph - N/A   Clear
9:55 AM 66.2 °F - 51.8 °F 60% 30.19 in 10.0 mi South 5.8 mph - N/A   Clear
10:15 AM 68.0 °F - 51.8 °F 56% 30.19 in 10.0 mi South 6.9 mph - N/A   Clear
10:35 AM 68.0 °F - 51.8 °F 56% 30.20 in 10.0 mi SSE 9.2 mph - N/A   Clear
10:55 AM 69.8 °F - 51.8 °F 53% 30.20 in 10.0 mi SSE 9.2 mph - N/A   Clear
11:15 AM 69.8 °F - 51.8 °F 53% 30.19 in 10.0 mi South 6.9 mph - N/A   Clear
11:35 AM 71.6 °F - 53.6 °F 53% 30.19 in 10.0 mi South 10.4 mph 16.1 mph N/A   Clear
11:55 AM 71.6 °F - 53.6 °F 53% 30.18 in 10.0 mi SSE 11.5 mph - N/A   Clear
12:15 PM 71.6 °F - 51.8 °F 50% 30.17 in 10.0 mi SSE 10.4 mph 17.3 mph N/A   Clear
12:35 PM 71.6 °F - 51.8 °F 50% 30.16 in 10.0 mi SSE 9.2 mph - N/A   Clear
12:55 PM 71.6 °F - 51.8 °F 50% 30.15 in 10.0 mi SSE 10.4 mph 16.1 mph N/A   Clear
1:15 PM 73.4 °F - 53.6 °F 50% 30.14 in 10.0 mi SSE 8.1 mph - N/A   Clear
1:35 PM 73.4 °F - 53.6 °F 50% 30.13 in 10.0 mi South 9.2 mph - N/A   Clear
1:55 PM 73.4 °F - 53.6 °F 50% 30.12 in 10.0 mi South 9.2 mph - N/A   Clear
2:15 PM 73.4 °F - 53.6 °F 50% 30.11 in 10.0 mi SSE 9.2 mph - N/A   Clear
2:35 PM 75.2 °F - 53.6 °F 47% 30.10 in 10.0 mi SSE 9.2 mph - N/A   Clear
2:55 PM 73.4 °F - 53.6 °F 50% 30.10 in 10.0 mi SE 10.4 mph - N/A   Clear
3:15 PM 75.2 °F - 51.8 °F 44% 30.09 in 10.0 mi SE 8.1 mph - N/A   Clear
3:35 PM 75.2 °F - 51.8 °F 44% 30.09 in 10.0 mi SE 9.2 mph - N/A   Clear
3:55 PM 75.2 °F - 50.0 °F 41% 30.09 in 10.0 mi SE 9.2 mph - N/A   Clear
4:15 PM 75.2 °F - 50.0 °F 41% 30.09 in 10.0 mi SSE 10.4 mph - N/A   Clear
4:35 PM 75.2 °F - 50.0 °F 41% 30.08 in 10.0 mi SSE 10.4 mph - N/A   Clear
4:55 PM 73.4 °F - 50.0 °F 44% 30.08 in 10.0 mi SE 9.2 mph - N/A   Clear
5:15 PM 73.4 °F - 50.0 °F 44% 30.09 in 10.0 mi SE 6.9 mph - N/A   Clear
5:35 PM 73.4 °F - 50.0 °F 44% 30.09 in 10.0 mi SSE 5.8 mph - N/A   Clear
5:55 PM 71.6 °F - 51.8 °F 50% 30.09 in 10.0 mi SE 4.6 mph - N/A   Clear
6:15 PM 69.8 °F - 51.8 °F 53% 30.09 in 10.0 mi Calm Calm - N/A   Clear
6:35 PM 68.0 °F - 51.8 °F 56% 30.09 in 10.0 mi Calm Calm - N/A   Clear
6:55 PM 64.4 °F - 53.6 °F 68% 30.10 in 10.0 mi WSW 3.5 mph - N/A   Clear
7:15 PM 64.4 °F - 51.8 °F 64% 30.10 in 10.0 mi SW 5.8 mph - N/A   Clear
7:35 PM 64.4 °F - 51.8 °F 64% 30.10 in 10.0 mi WSW 8.1 mph - N/A   Clear
7:55 PM 62.6 °F - 51.8 °F 68% 30.10 in 10.0 mi SW 8.1 mph - N/A   Clear
8:15 PM 62.6 °F - 51.8 °F 68% 30.09 in 10.0 mi SW 4.6 mph - N/A   Clear
8:35 PM 59.0 °F - 51.8 °F 77% 30.10 in 10.0 mi WSW 6.9 mph - N/A   Clear
8:55 PM 60.8 °F - 51.8 °F 72% 30.10 in 10.0 mi SW 8.1 mph - N/A   Clear
9:15 PM 59.0 °F - 51.8 °F 77% 30.10 in 10.0 mi WSW 9.2 mph - N/A   Clear
9:35 PM 60.8 °F - 53.6 °F 77% 30.10 in 10.0 mi WSW 9.2 mph - N/A   Clear
9:55 PM 59.0 °F - 53.6 °F 82% 30.10 in 10.0 mi WSW 9.2 mph - N/A   Clear
10:15 PM 59.0 °F - 53.6 °F 82% 30.11 in 10.0 mi WSW 9.2 mph - N/A   Clear
10:35 PM 57.2 °F - 53.6 °F 88% 30.10 in 10.0 mi WSW 8.1 mph - N/A   Clear
10:55 PM 55.4 °F - 53.6 °F 94% 30.10 in 10.0 mi SW 6.9 mph - N/A   Clear
11:15 PM 55.4 °F - 53.6 °F 94% 30.09 in 10.0 mi WSW 6.9 mph - N/A   Clear
11:35 PM 55.4 °F - 53.6 °F 94% 30.08 in 10.0 mi SW 4.6 mph - N/A   Clear
11:55 PM 53.6 °F - 53.6 °F 100% 30.08 in 10.0 mi SSW 8.1 mph - N/A   Clear